Kenai, AK

4:20 AM AKDT on October 23, 2017 (GMT -0800)
Kenai Municipal

Weather History for PAEN - November, 2012

Change the Weather History Date:

Saturday, November 10, 2012

  Actual Average Record
Temperature  
Mean Temperature 34 °F -  
Max Temperature 36 °F 31 °F 48 °F (2014)
Min Temperature 30 °F 18 °F -11 °F (1969)
Degree Days  
Heating Degree Days 31    
Moisture  
Dew Point 29 °F    
Average Humidity 84    
Maximum Humidity 89    
Minimum Humidity 76    
Precipitation  
Precipitation 0.01 in - - ()
Sea Level Pressure  
Sea Level Pressure 29.60 in    
Wind  
Wind Speed 14 mph (NNE)    
Max Wind Speed 18 mph    
Max Gust Speed -    
Visibility 10 miles    
Events      
Averages and records for this station are not official NWS values.
T = Trace of Precipitation, MM = Missing Value Source: NWS Daily Summary

Daily Weather History Graph

Daily Weather History Graph

Search for Another Location

Airport or City:

Trip Planner

Search our weather history database for the weather conditions in past years. The results will help you decide how hot, cold, wet, or windy it might be!

Date:

Astronomy

Nov. 10, 2012 Rise Set
Actual Time 8:55 AM AKST 4:41 PM AKST
Civil Twilight 8:06 AM AKST 5:30 PM AKST
Nautical Twilight 7:14 AM AKST 6:22 PM AKST
Astronomical Twilight 6:24 AM AKST 7:11 PM AKST
Moon 4:20 AM AKST (11/10) 3:17 PM AKST (11/10)
Length of Visible Light 9h 23m
Length of Day
7h 46m
Waning Crescent, 13% of the Moon is Illuminated
Nov 10
Waning Crescent
Nov 13
New
Nov 20
First Quarter
Nov 28
Full
Dec 6
Last Quarter

Hourly Weather History & Observations

Time (AKST) Temp. Windchill Dew Point Humidity Pressure Visibility Wind Dir Wind Speed Gust Speed Precip Events Conditions
12:53 AM 33.1 °F 22.2 °F 30.0 °F 89% 29.70 in 10.0 mi NNE 17.3 mph - 0.01 in   Overcast
1:53 AM 32.0 °F 21.2 °F 28.9 °F 88% 29.69 in 10.0 mi NNE 16.1 mph - N/A   Overcast
3:53 AM 32.0 °F 22.1 °F 28.9 °F 88% 29.66 in 10.0 mi NNE 13.8 mph - N/A   Overcast
4:53 AM 32.0 °F 22.1 °F 28.9 °F 88% 29.65 in 10.0 mi NNE 13.8 mph - N/A   Overcast
5:53 AM 32.0 °F 22.5 °F 28.9 °F 88% 29.64 in 10.0 mi NNE 12.7 mph - N/A   Overcast
6:53 AM 32.0 °F 21.6 °F 28.9 °F 88% 29.62 in 10.0 mi NNE 15.0 mph - N/A   Overcast
7:53 AM 32.0 °F 21.6 °F 28.9 °F 88% 29.62 in 10.0 mi NNE 15.0 mph - N/A   Overcast
8:53 AM 33.1 °F 23.0 °F 30.0 °F 89% 29.61 in 10.0 mi NNE 15.0 mph - N/A   Overcast
9:53 AM 33.1 °F 21.9 °F 30.0 °F 89% 29.61 in 10.0 mi NNE 18.4 mph - N/A   Overcast
10:53 AM 34.0 °F 23.8 °F 30.0 °F 85% 29.60 in 10.0 mi NNE 16.1 mph - N/A   Overcast
11:53 AM 34.0 °F 26.6 °F 30.9 °F 89% 29.60 in 10.0 mi NNE 9.2 mph - N/A   Overcast
12:53 PM 35.1 °F 26.4 °F 30.9 °F 85% 29.59 in 10.0 mi NNE 12.7 mph - N/A   Overcast
1:53 PM 35.1 °F 26.4 °F 30.0 °F 82% 29.57 in 10.0 mi NNE 12.7 mph - N/A   Overcast
2:53 PM 36.0 °F 28.0 °F 28.9 °F 76% 29.56 in 10.0 mi NE 11.5 mph - N/A   Overcast
3:53 PM 35.1 °F 25.9 °F 28.9 °F 78% 29.55 in 10.0 mi NNE 13.8 mph - N/A   Overcast
4:53 PM 35.1 °F 26.4 °F 28.0 °F 76% 29.54 in 10.0 mi NE 12.7 mph - N/A   Overcast
5:53 PM 34.0 °F 26.6 °F 28.0 °F 79% 29.55 in 10.0 mi NE 9.2 mph - N/A   Scattered Clouds
6:53 PM 34.0 °F 26.6 °F 28.9 °F 82% 29.55 in 10.0 mi NE 9.2 mph - N/A   Overcast
7:53 PM 35.1 °F 28.6 °F 28.9 °F 78% 29.55 in 10.0 mi NE 8.1 mph - N/A   Overcast
8:53 PM 34.0 °F 28.0 °F 28.9 °F 82% 29.55 in 10.0 mi NE 6.9 mph - N/A   Overcast
9:53 PM 33.1 °F 25.5 °F 28.0 °F 82% 29.55 in 10.0 mi NNE 9.2 mph - N/A   Overcast
10:53 PM 33.1 °F 25.5 °F 28.0 °F 82% 29.56 in 10.0 mi NNE 9.2 mph - N/A   Overcast
11:53 PM 30.9 °F 23.5 °F 27.0 °F 85% 29.57 in 10.0 mi NE 8.1 mph - N/A   Overcast